Flag for Germany Weather past 2 weeks in Greven, North Rhine-Westphalia, Germany

Now
63 °F

Partly sunny.


Feels Like: 63 °F
Forecast: 53 / 77 °F
Wind: 6 mph from Southwest

Location: Muenster / Osnabrueck

Current Time: Aug 4, 2015 at 8:25:53 PM

Latest Report: Aug 4, 2015 at 7:50 PM


Visibility: N/A

Pressure: 30.01 "Hg

Humidity: 88%

Dew point: 59 °F

Location of GrevenLocation

Historic Weather in Greven — Graph

°F

Greven temperature yesterday

Maximum temperature yesterday: 90 °F (at 4:20 PM)
Minimum temperature yesterday: 59 °F (at 3:50 AM)
Average temperature yesterday: 74 °F

Past Weeks' High & Low Weather Summary

 TemperatureHumidityPressure
High90 °F (Aug 3, 4:20 PM)100% (Jul 20, 10:20 PM)30.15 "Hg (Jul 20, 10:20 PM)
Low45 °F (Jul 31, 5:50 AM)26% (Aug 3, 5:20 PM)29.47 "Hg (Jul 25, 7:20 AM)
Average64 °F69%29.87 "Hg
* Reported Jul 20 7:20 PM — Aug 4 7:20 PM, Greven, Weather by CustomWeather, © 2015

Note: Actual official high and low records may vary slightly from our data, if they occured in-between our weather recording intervals... More about our weather records

Advertising

Greven weather history for previous 24 hours

 ConditionsComfort  
Time TempWeatherWind HumidityBarometerVisibility
7:20 PM
Tue, Aug 4
63 °FPartly sunny.9 mph94%30.01 "HgN/A
6:50 PM63 °FLight rain. Broken clouds.7 mph94%29.98 "HgN/A
6:20 PM63 °FDrizzle. Partly sunny.12 mph100%29.98 "HgN/A
5:50 PM63 °FDrizzle. Partly sunny.16 mph94%29.98 "Hg6 mi
5:20 PM64 °FDrizzle. Partly sunny.21 mph94%29.95 "Hg4 mi
4:50 PM68 °FDrizzle. Broken clouds.7 mph94%29.95 "Hg4 mi
4:20 PM66 °FDrizzle. Broken clouds.6 mph100%29.92 "Hg2 mi
3:50 PM66 °FLight rain. Broken clouds.5 mph100%29.92 "HgN/A
3:20 PM66 °FLight rain. Broken clouds.5 mph94%29.92 "HgN/A
2:50 PM66 °FLight rain. Broken clouds.5 mph94%29.92 "HgN/A
2:20 PM66 °FLight rain. Broken clouds.5 mph94%29.92 "HgN/A
1:50 PM66 °FLight rain. Broken clouds.5 mph88%29.92 "HgN/A
1:20 PM68 °FRain. Broken clouds.10 mph83%29.92 "HgN/A
12:50 PM73 °FLight rain. Partly sunny.15 mph65%29.92 "HgN/A
12:20 PM77 °FSunny.14 mph51%29.89 "Hg10 mi
11:50 AM79 °FSunny.9 mph48%29.86 "Hg10 mi
11:20 AM79 °FPassing clouds.8 mph48%29.86 "HgN/A
10:50 AM79 °FSunny.2 mph51%29.83 "Hg10 mi
10:20 AM77 °FPassing clouds.3 mph54%29.83 "HgN/A
9:50 AM75 °FPassing clouds.5 mph61%29.86 "HgN/A
9:20 AM72 °FPartly sunny.2 mph65%29.86 "HgN/A
8:50 AM70 °FPartly sunny.5 mph69%29.86 "HgN/A
8:20 AM70 °FPartly sunny.7 mph69%29.86 "HgN/A
7:50 AM70 °FBroken clouds.5 mph64%29.83 "HgN/A
7:20 AM70 °FBroken clouds.7 mph60%29.83 "HgN/A
6:50 AM68 °FPassing clouds.5 mph64%29.83 "HgN/A
6:20 AM68 °FPassing clouds.6 mph64%29.83 "HgN/A
5:50 AM68 °FPassing clouds.7 mph64%29.83 "HgN/A
5:20 AM68 °FPassing clouds.6 mph64%29.83 "HgN/A
4:50 AM68 °FPassing clouds.5 mph69%29.83 "HgN/A
4:20 AM66 °FClear.2 mph73%29.86 "Hg10 mi
3:50 AM66 °FClear.2 mph73%29.86 "Hg10 mi
3:20 AM64 °FClear.2 mph83%29.86 "Hg10 mi
2:50 AM63 °FClear.2 mph88%29.89 "Hg10 mi
2:20 AM63 °FClear.1 mph83%29.89 "Hg10 mi
1:50 AM66 °FClear.1 mph73%29.89 "Hg10 mi
1:20 AM66 °FClear.3 mph73%29.92 "Hg10 mi
12:50 AM72 °FPassing clouds.3 mph61%29.89 "HgN/A
12:20 AM72 °FClear.2 mph61%29.92 "Hg10 mi
11:20 PM
Mon, Aug 3
66 °FClear.1 mph78%29.92 "Hg10 mi
10:50 PM70 °FClear.2 mph69%29.92 "Hg10 mi
10:20 PM73 °FPassing clouds.3 mph57%29.92 "HgN/A
9:50 PM73 °FSunny.2 mph61%29.92 "Hg10 mi
9:20 PM77 °FPassing clouds.3 mph51%29.92 "HgN/A
8:50 PM82 °FPassing clouds.3 mph40%29.92 "HgN/A
8:20 PM82 °FPassing clouds.5 mph40%29.92 "HgN/A
Weather by CustomWeather, © 2015

See weather overviewHow to use our weather pages